Location: Aalen
(48.8330°N, 10.1000°E)
Time: 09:40:12
(UTC+02:00)

Transit 2A - Pass Details

Date: 29 July 2021
Orbit: 594 x 964 km, 66.7° (Epoch: 24 September)

Event Time Altitude Azimuth Distance (km) Brightness Sun altitude
Rises 08:55:28 0° 223° (SW) 2,836 8.6 28.6°
Reaches altitude 10° 08:57:40 10° 226° (SW) 1,956 7.9 28.9°
Maximum altitude 09:02:01 65° 308° (NW) 700 6.0 29.6°
Drops below altitude 10° 09:06:43 10° 31° (NNE) 2,115 8.7 30.4°
Sets 09:09:11 0° 35° (NE) 3,091 9.5 30.8°
